Location: Unspecified
(17.6330°N, 0.0000°E)
Time: 15:20:08
(UTC+00:00)

KKS-1 - Visible Passes

Search period start: 22 August 2019 00:00
Search period end: 01 September 2019 00:00
Orbit: 637 x 650 km, 98.3° (Epoch: 21 August)

Date Brightness Start Highest point End Pass type
(mag) Time Alt. Az. Time Alt. Az. Time Alt. Az.
22 Aug ? 19:20:41 10° N 19:25:03 55° WNW 19:29:25 10° SSW visible
23 Aug ? 19:45:46 10° NNW 19:49:29 26° WNW 19:53:12 10° SW visible
24 Aug ? 20:11:51 10° NW 20:13:51 13° WNW 20:15:52 10° W visible
25 Aug ? 18:57:46 10° NNE 19:02:14 70° ESE 19:06:41 10° S visible
26 Aug ? 19:22:21 10° N 19:26:43 54° WNW 19:31:04 10° SSW visible
27 Aug ? 19:47:27 10° NNW 19:51:09 26° WNW 19:54:50 10° SW visible
28 Aug ? 18:35:19 10° NE 18:39:21 33° E 18:43:23 10° SSE visible
28 Aug ? 20:13:37 10° NW 20:15:31 13° WNW 20:17:25 10° W visible
29 Aug ? 18:59:26 10° NNE 19:03:53 72° ESE 19:08:21 10° S visible
30 Aug ? 19:24:02 10° N 19:28:22 52° WNW 19:32:43 10° SSW visible
31 Aug ? 19:49:09 10° NNW 19:52:48 25° WNW 19:56:27 10° SW visible
